This demonstration page uses our WeatherBlox Daily Observations layout. Learn more.

Left ArrowRight Arrow

39.01783, -85.05884

Hourly Observations for January 2, 2020

Temp ( °F °C ) Dew Point ( °F °C ) Humidity (%) Winds ( mph kmh ) Pressure ( in mb ) Visibility ( mi km ) Precip ( " mm )
12:52 am 00:52 Mostly Cloudy 37 2.8 22 -5.6 54 54 SSW 8 13 29.83 1010 10 16 0.00 0.00
1:52 am 01:52 Partly Cloudy 38 3.3 22 -5.6 52 52 SSW 10 17 29.81 1010 10 16 0.00 0.00
2:52 am 02:52 Mostly Clear 38 3.3 23 -5 55 55 SSW 12 19 29.82 1010 10 16 0.00 0.00
3:52 am 03:52 Mostly Clear 37 2.8 24 -4.4 59 59 S 12 19 29.80 1009 10 16 0.00 0.00
4:52 am 04:52 Mostly Clear 37 2.8 24 -4.4 59 59 S 12 19 29.80 1009 10 16 0.00 0.00
5:52 am 05:52 Cloudy 38 3.3 25 -3.9 60 60 S 12 19 29.80 1009 10 16 0.00 0.00
6:52 am 06:52 Cloudy 40 4.4 25 -3.9 55 55 S 10 17 29.78 1009 10 16 0.00 0.00
7:52 am 07:52 Cloudy 41 5 25 -3.9 53 53 SSW 9 15 29.80 1009 10 16 0.00 0.00
8:19 am 08:19 Cloudy 43 6.1 26 -3.3 51 51 S 12 19 29.80 1009 10 16 0.00 0.00
8:52 am 08:52 Cloudy 44 6.7 26 -3.3 49 49 SSW 10 17 29.80 1009 10 16 0.00 0.00
9:52 am 09:52 Cloudy 45 7.2 28 -2.2 52 52 S 10 17 29.81 1009 10 16 0.00 0.00
10:52 am 10:52 Cloudy 47 8.3 28 -2.2 48 48 SSW 13 20 29.81 1010 10 16 0.00 0.00
11:52 am 11:52 Cloudy 50 10 31 -0.6 48 48 SSW 14 22 29.78 1009 10 16 0.00 0.00
12:52 pm 12:52 Cloudy 50 10 35 1.7 57 57 SSW 10 17 29.77 1008 10 16 0.00 0.00
1:52 pm 13:52 Cloudy 50 10 39 3.9 66 66 SSW 9 15 29.75 1007 10 16 0.00 0.00
2:52 pm 14:52 Cloudy 49 9.4 40 4.4 71 71 S 13 20 29.74 1007 10 16 0.00 0.00
3:19 pm 15:19 Cloudy 48 8.9 41 5 77 77 SSW 14 22 29.76 1008 10 16 0.00 0.00
3:41 pm 15:41 Cloudy 48 8.9 43 6.1 83 83 SSW 8 13 29.77 1008 10 16 0.00 0.00
3:52 pm 15:52 Cloudy with Drizzle 47 8.3 43 6.1 86 86 SSW 8 13 29.76 1008 3 4 0.00 0.00
4:52 pm 16:52 Cloudy with Drizzle 47 8.3 44 6.7 90 90 S 13 20 29.74 1007 3 5 0.00 0.00
5:16 pm 17:16 Cloudy with Light Rain 47 8.3 44 6.7 90 90 SSW 8 13 29.76 1008 3 4 0.00 0.00
5:32 pm 17:32 Cloudy with Rain 47 8.3 45 7.2 93 93 SW 5 7 29.78 1008 2 2 0.02 0.51
5:52 pm 17:52 Cloudy with Rain 47 8.3 45 7.2 93 93 SSW 6 9 29.75 1007 2 2 0.12 3.05
6:19 pm 18:19 Cloudy with Rain 47 8.3 45 7.2 93 93 WSW 5 7 29.78 1008 2 2 0.09 2.29
6:43 pm 18:43 Cloudy with Light Rain 48 8.9 46 7.8 93 93 SSW 7 11 29.77 1008 2 2 0.20 5.08
6:52 pm 18:52 Cloudy with Light Rain 48 8.9 46 7.8 93 93 SSW 10 17 29.75 1008 3 4 0.21 5.33
7:04 pm 19:04 Cloudy with Light Rain 49 9.4 46 7.8 90 90 SSW 12 19 29.76 1008 3 5 0.01 0.25
7:07 pm 19:07 Cloudy with Light Rain 49 9.4 46 7.8 90 90 SSW 10 17 29.77 1008 8 13 0.01 0.25
7:34 pm 19:34 Cloudy with Light Rain 48 8.9 46 7.8 93 93 SSW 8 13 29.76 1008 3 5 0.04 1.02
7:52 pm 19:52 Cloudy with Light Rain 48 8.9 46 7.8 93 93 S 7 11 29.75 1007 4 6 0.05 1.27
8:09 pm 20:09 Cloudy with Drizzle 48 8.9 46 7.8 93 93 S 7 11 29.75 1008 4 6 0.01 0.25
8:23 pm 20:23 Cloudy with Drizzle 48 8.9 46 7.8 93 93 SSW 5 7 29.76 1008 2 2 0.01 0.25
8:43 pm 20:43 Cloudy with Light Rain 47 8.3 46 7.8 97 97 S 6 9 29.76 1008 2 2 0.01 0.25
8:52 pm 20:52 Cloudy with Light Rain 47 8.3 46 7.8 97 97 S 5 7 29.74 1007 1 2 0.02 0.51
9:03 pm 21:03 Cloudy with Light Rain 47 8.3 46 7.8 97 97 S 6 9 29.76 1008 1 1 0.00 0.00
9:27 pm 21:27 Cloudy with Light Rain 47 8.3 46 7.8 97 97 S 8 13 29.76 1008 1 1 0.01 0.25
9:52 pm 21:52 Cloudy with Light Rain 47 8.3 46 7.8 97 97 SSE 5 7 29.74 1007 1 1 0.02 0.51
10:52 pm 22:52 Cloudy with Light Rain 47 8.3 45 7.2 93 93 ESE 5 7 29.72 1006 1 1 0.03 0.76
11:52 pm 23:52 Mostly Cloudy with Mist and Fog 48 8.9 46 7.8 93 93 S 5 7 29.71 1006 0 0 0.01 0.25

Powered by AerisWeather